Content
SEND FEEDBACK

Daily
Averages
Monthly
Summary
United Kingdom

BICESTER, ENGLAND


Home > Europe > United Kingdom > England
Elevation: 440 feet     Latitude: 51 56N     Longitude: 001 15W

WEATHER
 
SELECT A DAY
Number of Records: 181,233;   Date Range: 7/1/96 - 7/13/14
 
SHARE

PRINT THIS DATA

[ ← Previous Day ]
WEATHER ALMANAC - OCTOBER 12, 2013
[ Next Day → ]
[ °C ]   °F
Weather ElementAverageHighLow
Temperature52.8 °F57.2 °F (2:50 pm)50 °F (12:50 am)
Dewpoint48.4 °F51.8 °F (5:50 am)46 °F (3:50 pm)
Humidity85.2 %100 % (5:50 am)61 % (3:50 pm)
Barometer30.08 in30.15 in (12:50 pm)30.01 in (11:50 pm)
Wind Speed9.2 mph20.7 mph (3:50 am)
Weather ElementAverage
Visibility6.4 mi
Wind DirectionESE (123.6 °)

Weather ElementTotal
Precipitation---
Heating Degree Days11.4 (Base 65)
Growing Degree Days3.6 (Base 50)
Averaged from 33 records on October 12, 2013
WEATHER CONDITIONS BREAKOUT
WIND DIRECTION BREAKOUT
WEATHER BY HOUR - OCTOBER 12, 2013
[ °C ]   °F
Local TimeTemperatureDewpointHumidityBarometerVisibilityWind DirectionWind SpeedGust SpeedPrecipitationEventsConditions
12:50 AM50.0 °F48.2 °F94 %30.12 in3.7 miNorth (10°)19.6 mphLight Drizzle
1:50 AM50.0 °F48.2 °F94 %30.12 in3.1 miNorth (360°)18.4 mphLight Drizzle
2:50 AM51.8 °F48.2 °F88 %30.09 in6.2 miNorth (10°)19.6 mphMostly Cloudy
3:50 AM52.0 °F49.0 °F86 %30.09 in9.0 miNorth (10°)20.7 mphPartly Cloudy
3:50 AM51.8 °F50.0 °F94 %30.06 in6.2 miNorth (10°)20.7 mphMostly Cloudy
4:50 AM51.8 °F50.0 °F94 %30.06 in6.2 miNorth (10°)20.7 mphMostly Cloudy
5:50 AM51.8 °F51.8 °F100 %30.04 in2.5 miNorth (10°)20.7 mphRainLight Rain
6:50 AM51.8 °F51.8 °F100 %30.04 in2.5 miNorth (10°)18.4 mphLight Drizzle
7:50 AM53.6 °F51.8 °F94 %30.06 inNNE (20°)17.3 mphRainLight Rain
8:50 AM53.6 °F51.8 °F94 %30.09 in2.5 miEast (80°)10.4 mphRainRain
9:37 AM51.8 °F50.0 °F94 %30.12 in6.2 miEast (90°)8.1 mphMostly Cloudy
9:50 AM51.0 °F48.0 °F87 %30.13 in16.0 miEast (90°)9.2 mphRainLight Rain
9:50 AM51.8 °F48.2 °F88 %30.12 in6.2 miEast (90°)9.2 mphMostly Cloudy
10:50 AM51.8 °F48.2 °F88 %30.12 in6.2 miENE (60°)9.2 mphMostly Cloudy
11:50 AM53.6 °F46.4 °F77 %30.12 in6.2 miENE (60°)8.1 mphMostly Cloudy
12:50 PM55.4 °F48.2 °F77 %30.12 in6.2 miENE (70°)9.2 mphMostly Cloudy
12:50 PM56.0 °F48.0 °F67 %30.15 in19.0 miENE (70°)9.2 mphPartly Cloudy
1:50 PM55.4 °F48.2 °F77 %30.12 in6.2 miEast (90°)6.9 mphMostly Cloudy
2:50 PM57.2 °F46.4 °F67 %30.12 in6.2 miEast (100°)6.9 mphMostly Cloudy
3:50 PM56.0 °F46.0 °F61 %30.12 in19.0 miESE (120°)3.5 mphPartly Cloudy
3:50 PM57.2 °F46.4 °F67 %30.09 in6.2 miESE (120°)3.5 mphMostly Cloudy
4:50 PM55.4 °F46.4 °F72 %30.06 in6.2 miESE (110°)1.2 mphMostly Cloudy
5:50 PM55.4 °F46.4 °F72 %30.06 in6.2 miWSW (240°)2.3 mphMostly Cloudy
6:50 PM53.6 °F48.2 °F82 %30.06 in6.2 miSW (220°)2.3 mphRainLight Rain
6:50 PM54.0 °F47.0 °F71 %30.09 in9.0 miSW (220°)2.3 mphRainLight Rain
7:17 PM53.6 °F48.2 °F82 %30.06 in3.7 miSW (230°)3.5 mphRainLight Rain
7:50 PM51.8 °F48.2 °F88 %30.06 in2.8 miSW (220°)2.3 mphRainRain
8:03 PM51.8 °F48.2 °F88 %30.06 in6.2 miSSW (210°)2.3 mphRainLight Rain
8:50 PM50.0 °F48.2 °F94 %30.06 in5.6 miSW (220°)1.2 mphRainLight Rain
9:50 PM50.0 °F48.0 °F92 %30.06 in4.0 miWSW (240°)3.5 mphRainLight Rain
9:50 PM50.0 °F48.2 °F94 %30.04 in3.7 miWSW (240°)3.5 mphRainLight Rain
10:50 PM50.0 °F48.2 °F94 %30.04 in2.5 miSW (230°)3.5 mphRainRain
11:50 PM50.0 °F48.2 °F94 %30.01 in2.5 miSSW (210°)5.8 mphRainRain
Hourly data recorded from EGVN, located miles away from Bicester, England







STORIES FROM OUR PARTNERS